GFSSW_250_rhum_117.txt.gz
RH
20 32 41 64 48 22 31 37 98 93 99 100 100 94 100 100 100 90 78 80 74 54 51 46 45 44 46 59 60 51 52 41 32 34 28 34 32 48 39 38 40 42 35 33 38
11 11 22 33 60 48 23 24 41 100 98 96 95 83 96 93 100 100 85 85 74 71 61 52 46 48 41 42 63 63 51 56 55 39 36 34 33 31 40 43 44 41 44 45 47
15 13 11 13 28 49 42 23 21 61 100 99 97 85 92 78 94 100 100 100 92 86 71 66 54 48 50 40 41 58 55 54 55 64 47 41 34 32 31 36 52 65 54 56 55
26 19 14 10 11 27 49 32 22 24 62 99 99 96 93 73 85 100 100 100 94 85 74 81 67 62 49 56 40 38 42 48 56 55 58 49 45 35 33 36 36 37 73 86 100
26 22 19 14 12 10 25 48 26 22 23 70 100 98 97 65 100 100 100 100 92 100 90 68 88 67 68 63 52 49 36 43 49 50 47 50 49 46 41 43 51 55 45 49 58
21 25 23 19 16 13 11 27 47 24 25 32 100 94 92 82 100 100 100 100 98 96 100 75 100 85 68 64 67 62 44 45 50 51 46 45 38 51 41 36 49 58 66 56 53
17 20 24 26 21 15 14 14 34 44 26 27 70 100 100 100 100 100 100 100 91 85 96 70 90 99 89 65 66 79 53 50 57 56 43 43 45 64 36 47 53 59 75 70 69
16 16 18 22 22 19 15 14 18 37 44 28 28 47 74 100 100 95 100 100 100 73 96 86 79 86 100 95 56 55 77 66 69 60 52 50 62 55 48 55 65 76 77 61 58
16 16 15 17 17 18 20 13 13 17 39 44 29 25 21 79 100 100 100 100 100 90 85 98 79 94 95 100 92 53 53 68 72 79 82 68 85 71 68 65 73 91 78 58 48
17 15 16 13 11 12 20 20 14 12 16 41 38 26 22 41 46 93 100 100 100 94 80 71 59 92 73 76 99 96 100 64 46 46 63 68 70 60 58 73 79 72 62 58 57
20 14 16 12 7 8 12 23 20 15 11 14 36 35 28 39 43 54 100 98 91 86 87 81 62 58 100 97 100 100 85 50 42 30 37 98 100 73 61 69 98 100 100 89 66
20 14 12 9 8 6 8 14 26 20 16 12 12 34 37 29 34 40 63 50 55 84 93 81 74 75 90 78 72 97 100 80 47 39 31 62 90 98 100 100 100 85 91 82 82
22 12 12 7 7 8 7 10 14 18 17 14 12 12 40 46 29 45 35 53 49 58 46 68 100 99 96 100 80 68 100 100 79 46 38 37 44 74 89 85 100 95 79 74 73
20 11 11 8 6 7 7 7 7 10 13 18 12 11 14 37 43 37 36 42 34 32 42 40 87 85 91 88 93 57 94 100 99 58 42 48 50 75 96 94 93 90 81 92 89
15 10 10 8 7 6 6 6 5 5 6 16 14 16 13 13 32 61 40 37 38 36 38 40 67 82 85 87 86 77 73 96 100 70 48 46 47 99 81 60 49 48 68 90 73
13 10 8 8 6 5 5 5 5 4 3 8 16 16 17 12 12 56 65 38 38 38 42 44 45 43 62 93 98 90 64 82 100 87 68 61 52 56 74 55 47 50 60 84 68
12 10 7 8 5 5 5 4 3 3 3 5 9 14 16 15 14 14 40 60 45 37 34 36 36 44 46 53 78 67 82 51 77 99 97 96 75 48 52 52 51 47 54 66 73
11 9 7 7 6 5 4 4 3 4 4 5 6 12 14 19 16 17 13 25 60 54 42 40 40 44 39 53 99 96 100 98 87 100 100 100 93 76 57 56 53 47 67 76 66
11 9 7 6 5 4 4 4 5 6 5 4 6 8 15 16 22 20 16 12 16 45 50 46 41 45 46 57 95 87 72 100 90 97 99 100 100 100 81 69 62 62 67 70 53
11 9 7 6 6 4 5 6 6 6 5 5 6 7 13 20 23 25 17 15 13 12 32 58 55 58 63 65 72 65 75 74 58 57 73 100 100 100 100 92 71 47 46 54 48
10 8 7 6 6 5 6 6 5 4 4 5 6 6 11 20 21 28 22 21 20 15 16 30 56 60 60 49 49 46 63 92 100 77 69 73 95 100 100 100 85 72 49 42 44
8 8 7 6 6 6 5 6 5 3 3 4 5 7 10 20 23 30 24 22 31 26 18 22 45 63 60 67 76 67 69 84 79 73 65 68 64 90 100 100 100 95 87 69 40
8 7 7 6 6 5 6 6 7 4 4 4 5 7 8 16 24 24 29 31 39 32 28 27 28 57 63 69 71 56 57 66 87 81 78 90 97 100 100 99 87 68 84 100 100
7 7 6 6 5 5 6 6 6 5 4 5 7 7 8 9 16 20 27 34 41 37 36 47 24 30 37 73 100 99 86 83 84 87 95 92 99 100 100 100 100 95 93 99 100
7 7 6 5 5 5 6 5 4 4 4 6 7 8 9 10 12 17 30 29 45 41 50 55 38 33 39 82 89 87 83 66 46 64 61 87 64 87 100 100 100 100 100 100 100
6 7 6 5 5 5 6 4 3 2 4 6 8 8 9 9 12 17 38 48 40 52 49 43 42 30 29 41 64 88 86 73 58 58 63 80 95 100 94 89 99 100 100 100 100
6 6 6 5 5 4 6 4 2 2 2 5 8 8 9 10 12 15 22 29 39 70 61 50 47 46 38 30 38 54 81 85 83 83 85 86 100 89 75 69 61 55 78 88 81

GFSSW_250_rhum_123.txt.gz
RH
53 47 44 32 24 22 16 12 24 40 44 57 80 80 70 90 66 70 78 80 98 86 74 52 41 46 41 38 34 28 23 32 38 37 32 32 34 34 22 21 23 24 24 22 28
74 68 53 46 38 28 21 17 11 17 40 47 46 36 72 90 94 82 91 64 97 86 91 68 45 46 49 42 40 39 28 25 38 33 34 35 34 41 31 27 26 27 28 29 28
75 76 68 50 42 35 26 18 19 13 12 34 46 40 29 70 78 99 74 42 73 88 90 88 62 58 48 46 49 46 46 31 34 33 34 35 34 38 41 36 34 32 29 29 33
78 82 68 55 48 34 26 22 22 17 17 12 29 42 34 30 45 60 69 76 59 62 81 92 82 79 64 52 61 46 36 43 48 30 36 36 36 33 30 34 36 37 37 37 36
81 84 80 66 41 28 18 18 17 19 18 20 12 26 34 34 32 43 59 67 68 63 71 82 82 95 85 64 62 57 39 54 48 40 34 38 36 34 30 31 27 30 35 39 40
83 86 83 96 49 23 14 12 14 15 16 19 19 12 23 26 62 46 36 44 78 57 63 70 100 98 96 88 62 78 44 50 44 40 43 45 45 37 33 35 34 33 28 29 36
78 73 87 83 60 28 18 11 12 14 15 15 20 17 10 30 70 54 44 36 62 72 58 63 87 99 100 89 75 87 48 50 49 61 48 57 50 73 43 38 38 40 38 30 32
88 81 79 78 62 35 17 12 12 15 14 13 16 19 13 17 55 49 48 39 34 80 94 62 70 90 98 99 86 86 64 50 65 60 62 41 66 74 38 47 47 45 41 39 35
100 81 89 78 60 39 20 11 10 13 16 12 12 16 20 17 22 71 48 51 41 45 98 83 60 63 84 86 94 99 78 68 82 72 59 45 70 59 54 51 61 59 46 42 36
100 98 98 86 73 39 22 13 9 10 14 16 12 11 17 29 21 66 48 58 38 43 54 72 49 51 59 54 65 96 98 97 100 100 88 57 62 56 43 49 55 56 60 55 47
100 97 95 76 73 50 25 14 10 9 13 14 14 11 16 27 28 19 43 57 50 34 39 66 56 47 61 73 90 85 100 100 100 100 100 69 61 63 47 46 55 71 68 66 65
100 92 97 84 58 50 30 14 9 8 10 14 12 13 14 22 26 23 32 50 50 42 37 42 49 82 90 63 76 89 98 99 100 100 87 99 97 100 60 57 63 60 60 63 64
100 100 100 99 58 55 38 12 9 8 10 11 9 12 12 14 23 32 19 30 68 53 44 40 94 100 100 94 68 73 89 100 100 100 74 77 93 100 85 62 87 81 69 59 62
100 98 100 100 54 52 42 13 8 8 9 10 8 10 11 11 18 31 23 21 58 59 51 42 83 93 94 99 83 64 95 100 100 100 78 65 61 100 100 86 82 86 98 99 93
100 100 100 100 73 41 33 12 8 8 9 8 8 10 11 8 27 26 33 19 26 73 60 44 52 68 86 95 88 68 82 96 100 100 87 54 38 70 100 90 100 100 87 84 77
100 100 100 95 64 27 26 12 7 7 9 8 6 8 8 10 16 27 28 27 20 56 85 71 56 39 71 100 98 90 91 72 75 72 51 68 37 47 69 95 100 100 100 95 88
100 100 100 100 60 20 18 11 7 7 7 7 6 7 9 11 14 21 25 31 22 18 50 87 67 45 44 96 100 100 75 52 44 34 29 77 43 26 84 86 100 100 100 95 70
100 100 89 91 37 17 13 10 7 6 6 6 6 6 7 10 18 19 26 33 36 23 34 100 82 66 40 51 95 100 97 47 41 37 35 68 25 33 63 100 100 100 100 98 95
100 93 75 39 20 16 12 9 6 6 6 5 6 6 6 8 12 17 19 32 22 28 21 48 92 100 77 56 73 88 97 84 61 46 42 34 38 57 47 83 100 100 97 70 59
100 52 32 20 17 17 11 8 6 6 6 5 7 6 6 7 8 13 18 27 36 34 27 22 73 95 100 87 64 71 90 100 95 69 46 33 34 48 57 66 81 100 100 88 69
99 52 14 14 12 14 10 8 5 5 6 6 7 6 6 6 8 8 14 26 32 36 28 22 18 84 100 92 60 60 73 81 86 62 50 38 35 65 66 70 73 79 75 85 92
56 26 13 12 12 9 9 6 5 5 6 6 6 8 6 5 6 8 8 13 21 26 29 24 24 33 65 95 100 100 91 85 96 92 80 66 48 81 79 86 85 80 81 79 82
12 17 11 12 11 8 6 5 5 4 6 6 5 7 6 6 5 7 8 9 12 17 24 35 20 18 22 71 97 63 47 64 80 98 76 65 67 94 98 91 84 77 80 89 98
19 13 13 12 9 8 5 4 5 4 6 6 5 6 7 6 6 6 7 9 11 15 18 21 19 18 15 19 59 83 59 46 65 82 87 79 99 99 98 100 99 100 99 90 74
12 11 12 11 8 6 4 3 4 5 6 6 5 5 6 6 6 8 7 7 9 14 20 20 18 20 27 18 26 53 82 84 59 67 76 73 74 75 100 100 100 100 69 46 50
10 10 11 12 6 4 3 3 4 5 5 5 5 5 6 7 6 7 8 7 7 9 12 16 24 20 25 32 22 22 50 75 61 51 52 62 52 58 75 100 100 96 68 54 55
10 9 8 9 6 3 2 3 3 5 5 5 5 6 5 6 7 8 9 9 8 7 8 13 19 22 23 35 30 26 19 35 53 74 75 53 77 82 63 58 81 85 74 68 71

GFSSW_250_rhum_126.txt.gz
RH
74 67 66 60 61 66 55 41 29 24 17 14 29 48 58 97 69 35 60 86 78 74 67 66 60 49 42 48 47 40 42 30 32 39 27 29 30 32 23 19 19 21 20 18 18
70 62 57 60 59 62 70 67 41 32 28 19 12 21 46 68 82 44 100 59 52 81 80 64 59 55 48 45 51 48 52 46 30 33 42 31 32 34 38 27 21 22 22 22 23
81 76 72 73 75 72 60 73 65 44 28 23 18 11 21 44 68 84 81 55 35 66 82 70 55 58 55 49 53 58 60 48 45 31 37 44 33 34 38 38 31 23 26 25 29
100 92 99 96 86 88 79 74 68 53 30 22 20 16 12 22 45 94 71 68 58 68 85 66 55 59 62 57 62 60 58 48 52 45 33 38 42 35 36 42 39 28 27 29 28
96 91 94 93 96 98 86 87 82 62 40 16 17 20 16 10 22 50 60 66 71 78 84 76 66 50 58 59 57 64 58 44 56 50 38 31 37 43 39 40 47 38 27 28 29
82 100 99 89 93 93 98 86 85 68 42 20 12 15 19 14 21 24 43 58 73 75 80 87 98 68 53 52 50 89 64 44 51 62 42 39 36 36 41 43 39 43 40 36 35
95 69 75 85 86 94 97 91 86 76 46 24 11 10 16 25 20 12 24 40 69 86 82 89 99 95 70 50 47 70 85 38 48 60 54 51 44 55 37 44 38 33 31 32 31
90 85 94 78 90 82 86 100 100 71 53 24 12 8 11 18 20 16 14 41 41 55 57 70 90 93 88 54 44 48 74 42 60 60 70 59 61 88 46 38 42 34 32 30 31
90 84 84 82 82 89 74 95 92 63 56 27 14 9 11 14 19 23 10 18 44 41 38 43 77 81 91 82 45 40 52 48 87 71 65 60 91 82 61 53 43 41 40 40 38
84 91 95 74 84 70 73 93 77 60 53 36 13 10 11 11 15 19 13 11 22 36 44 34 47 65 67 76 57 47 44 52 75 100 85 67 85 81 63 61 72 48 41 50 53
89 100 99 100 86 65 65 79 58 46 42 41 15 10 10 9 12 15 14 12 13 29 40 38 32 34 52 63 88 62 50 44 70 94 100 94 76 85 58 48 64 76 79 66 62
100 95 99 100 98 70 50 50 36 35 50 45 10 9 8 7 12 18 18 14 11 15 38 36 30 43 46 62 77 70 56 47 52 80 81 100 76 93 58 53 63 78 92 84 70
100 97 87 97 100 46 42 40 28 23 26 46 10 7 7 7 12 15 17 15 13 13 29 36 44 65 51 51 61 52 59 49 51 56 69 100 89 100 76 57 60 68 75 77 76
100 88 81 93 99 46 20 18 17 19 21 20 11 6 7 8 12 16 18 16 14 13 15 28 88 74 49 41 66 51 82 98 70 58 47 61 77 94 100 67 60 71 70 67 67
100 100 85 74 76 35 14 12 13 16 14 13 11 6 7 8 10 11 15 16 16 19 17 20 61 58 57 48 96 99 100 100 100 91 60 45 48 90 100 90 85 97 96 90 82
100 99 77 72 69 26 15 12 12 13 11 9 8 7 6 10 10 13 9 14 15 21 23 23 76 78 51 63 56 100 100 81 90 91 67 45 36 63 96 100 100 100 100 100 100
100 100 95 74 60 23 12 12 10 11 9 8 6 7 7 10 9 15 10 11 14 16 20 21 25 47 60 69 55 94 100 90 66 77 64 44 26 34 96 98 100 100 100 100 99
100 100 92 82 57 19 12 11 10 9 10 7 6 6 6 8 8 11 11 10 13 19 23 27 18 22 31 55 64 61 100 98 69 42 51 59 26 24 69 89 100 100 100 100 100
88 100 76 59 40 18 13 11 10 9 10 7 5 6 6 8 8 8 7 10 16 26 22 22 19 22 47 77 79 66 66 98 100 85 59 50 47 36 39 96 96 100 100 100 100
86 75 66 41 29 17 13 13 12 8 8 6 5 6 6 8 8 7 9 9 11 16 20 20 27 23 51 98 85 77 71 72 100 97 50 46 57 46 48 68 100 100 98 96 88
100 99 41 24 26 15 13 13 12 8 7 5 5 5 6 7 7 6 10 10 12 17 15 20 24 33 37 32 56 75 69 61 66 90 88 49 48 79 77 76 94 100 100 99 91
80 79 31 23 16 14 12 13 12 7 6 4 4 5 5 6 8 6 10 12 16 18 20 21 21 31 29 31 77 95 85 74 59 55 69 62 60 91 79 84 78 70 100 100 100
52 38 31 15 12 14 12 10 8 8 5 4 4 4 5 6 7 8 8 10 14 21 20 21 20 22 24 28 45 67 75 74 59 53 45 61 80 100 100 100 100 92 92 100 100
42 18 12 13 12 11 10 9 6 6 4 3 4 4 6 6 7 8 8 7 9 17 25 20 18 15 19 19 19 34 57 62 62 52 45 35 69 94 85 100 100 100 92 88 97
30 16 13 13 12 8 7 6 4 4 4 3 3 4 5 6 6 7 8 8 7 10 23 30 22 17 19 25 22 16 29 52 51 60 52 56 42 67 97 100 100 100 100 98 99
15 13 10 12 9 5 4 4 3 3 3 2 3 4 5 6 7 7 8 8 8 8 11 20 24 18 22 21 22 28 23 29 30 45 54 63 51 64 60 84 100 100 100 100 100
13 10 8 10 7 4 3 3 3 3 3 2 3 4 5 5 6 7 7 8 8 8 8 9 18 21 28 23 24 28 27 27 22 34 50 47 71 96 71 66 84 97 100 100 100

GFSSW_250_rhum_129.txt.gz
RH
57 65 58 71 50 50 46 48 54 44 42 38 39 31 17 25 59 70 82 100 96 45 38 74 91 79 64 55 38 38 38 44 40 33 31 28 26 23 20 19 20 20 18 16 13
64 71 75 64 72 78 57 59 62 56 50 48 39 39 33 20 16 44 51 75 100 62 37 60 76 78 82 63 53 35 54 44 42 33 34 31 26 25 23 20 20 20 20 19 17
100 100 92 95 72 75 75 69 59 59 64 65 56 44 37 32 21 18 31 47 66 92 53 48 64 78 72 82 65 54 71 50 44 42 32 34 29 27 31 26 21 22 23 21 20
87 91 86 95 90 85 89 82 72 63 62 69 58 59 55 36 34 31 18 30 44 59 70 50 48 57 84 82 83 67 87 48 40 53 40 33 38 29 34 34 34 26 25 22 21
100 100 100 96 98 96 87 96 85 73 68 70 64 56 55 49 85 24 24 12 28 48 47 61 38 42 66 85 81 76 91 52 41 48 47 38 31 38 32 33 38 38 31 25 24
100 100 100 100 98 99 100 93 96 88 65 74 78 62 54 80 46 28 21 19 12 37 45 51 44 38 59 80 73 92 90 77 42 51 44 49 40 29 37 38 35 40 36 30 28
98 100 100 100 94 96 96 100 95 86 75 78 81 82 62 65 36 26 16 22 16 13 34 46 52 29 39 67 78 90 91 77 47 56 53 53 44 43 33 38 41 36 43 41 29
95 100 100 96 81 89 88 93 92 82 55 69 80 78 76 49 36 24 10 14 18 12 14 32 59 38 29 52 72 67 99 70 53 64 61 51 54 71 43 39 35 43 39 48 51
92 96 95 100 88 91 87 83 72 73 42 43 57 60 61 54 36 23 10 10 18 14 11 20 36 51 29 38 52 59 84 78 56 87 69 50 83 89 59 49 40 38 44 42 42
88 96 99 96 100 100 85 69 62 61 33 22 31 38 40 41 39 26 12 11 17 19 12 12 25 50 34 32 30 54 75 85 61 58 97 62 83 91 72 63 53 45 37 38 39
100 100 100 100 99 92 79 64 43 39 24 18 18 23 30 27 37 33 11 11 14 19 16 11 15 37 48 32 74 57 71 100 72 67 100 100 84 100 95 74 60 53 47 46 46
96 100 100 100 100 82 76 53 26 35 21 21 15 17 22 24 31 33 9 7 9 15 22 13 10 21 75 42 48 47 64 100 96 66 62 100 86 100 72 70 66 51 58 67 68
100 100 100 100 100 90 59 51 26 23 15 20 14 15 16 14 22 26 13 8 8 10 19 18 11 20 54 60 46 47 45 90 100 89 60 98 100 100 82 65 72 68 70 72 79
100 100 100 100 100 79 50 36 23 19 17 12 15 16 13 13 14 20 12 6 7 9 17 22 16 12 28 47 50 60 67 88 100 100 76 58 89 100 100 68 68 75 85 86 90
100 100 100 100 94 46 39 32 25 17 14 12 12 14 15 12 12 13 14 7 6 9 12 18 20 12 11 27 50 68 91 100 100 100 100 75 53 85 100 64 69 82 80 97 100
100 100 100 100 65 40 33 30 16 15 14 12 12 12 13 11 9 11 10 8 6 6 10 16 30 18 12 25 36 68 83 81 80 98 100 95 64 83 100 82 78 100 96 97 98
100 100 100 100 44 36 25 26 18 14 10 12 13 11 10 10 8 8 7 7 6 6 9 14 20 20 14 15 28 60 66 67 59 79 87 97 67 72 97 100 96 100 100 100 100
100 100 100 100 50 39 23 20 17 12 12 12 11 10 8 9 7 7 6 6 6 6 10 9 19 22 18 13 19 46 57 52 48 48 64 75 63 42 100 92 100 92 100 100 100
100 100 100 79 61 38 22 16 15 11 11 12 11 8 7 6 6 5 5 6 7 6 8 9 15 24 25 21 22 42 68 51 50 44 47 39 54 46 79 100 99 100 100 95 100
100 100 85 63 61 25 16 14 14 10 9 8 7 8 5 5 6 5 5 6 7 7 9 10 14 18 34 25 22 44 82 71 58 49 32 26 33 36 48 100 100 100 100 100 100
100 96 80 54 36 20 15 13 13 8 7 6 5 5 4 4 4 4 6 6 8 8 9 11 16 25 32 22 20 17 62 71 62 55 45 36 28 41 77 100 100 100 100 100 98
82 68 59 39 21 14 12 12 9 5 4 4 4 4 4 4 4 4 6 6 8 7 9 14 16 21 24 29 27 27 76 85 72 54 44 46 47 56 73 100 100 100 100 100 99
65 50 29 19 14 11 10 9 5 4 4 3 3 3 3 3 3 4 6 6 7 8 8 14 16 16 25 29 28 26 25 39 64 68 58 61 56 48 75 94 100 100 100 100 100
57 42 21 13 12 8 8 6 3 3 3 3 3 3 3 3 3 4 6 7 7 7 8 12 13 16 25 33 30 25 22 18 31 48 53 46 68 60 95 99 100 100 100 100 100
65 36 16 11 9 8 6 3 2 3 3 2 3 2 3 2 4 4 6 8 7 8 8 9 12 12 14 26 27 30 23 17 13 22 30 62 72 66 75 100 100 100 100 99 98
60 40 14 10 9 7 4 2 2 2 3 2 3 2 2 2 3 4 6 8 7 7 7 7 8 10 12 16 28 30 29 28 18 17 23 54 66 72 69 83 100 100 100 100 100
44 26 13 9 8 4 3 3 2 2 3 3 3 3 2 2 4 4 6 7 7 7 7 7 8 9 11 10 16 25 34 32 27 20 18 20 59 86 77 75 99 100 100 100 100